{"data":{"norad_id":68938,"epoch":"2026-05-25T01:21:48.263040Z","epoch_age_seconds":63340,"freshness":"FRESH","line1":"1 68938U 26098V   26145.05680860  .00014677  00000+0  44171-3 0  9994","line2":"2 68938  51.8712 179.2276 0007986  54.7759 305.3973 15.34563480  3799","mean_motion":15.3456348,"eccentricity":0.0007986,"inclination_deg":51.8712,"raan_deg":179.2276,"arg_perigee_deg":54.7759,"mean_anomaly_deg":305.3973,"bstar":0.00044171,"rev_number":379,"period_min":93.837760299105,"perigee_km":456.75467931913,"apogee_km":467.68009334498,"semimajor_km":6840.3543863321,"source":"CELESTRAK","updated_at":"2026-05-25T13:38:08.796515Z"}}